Accueil
METAR-TAF:

METAR-TAF

Aéroports :

Newport, Vermont, États-Unis

latitude: 44-53-20N, longitude: 072-13-45W, altitude: 283 m

Observation

Le bulletin a été fait il y a 19 minutes, à 20:55 UTC
Vent calme
Température 18°C
Humidité 32%
Pression 1018 hPa
Visibilité: 16.1 km
Ciel clair

METAR: KEFK 242055Z AUTO 00000KT 10SM CLR 18/01 A3005 RMK AO2 T01810006

Heure: 17:14 (21:14 UTC)


TAF: absent

Observations et prévisions météorologiques de plus de 4000 aéroports (messages METAR et TAF).

Les stations disponibles sont représentées par des disques jaunes et rouges sur la carte.

Passer la souris dessus pour voir le nom de la station.

Cliquer dessus pour voir les observations et prévisions météorologiques.

Pour changer de carte: cliquez sur les boutons verts avec une croix noire pour zoomer, sur le bouton vert avec un tiret pour effectuer un zoom arrière, ou sur les flèches vertes pour les cartes adjacentes.


METAR-TAF: